Flag for Austria Weather past 2 weeks in Eisenstadt, Burgenland, Austria

Now
40 °F

Quite cool.


Feels Like: 36 °F
Forecast: 36 / 47 °F
Wind: 6 mph from West

Location: Eisenstadt

Current Time: Apr 2, 2015 at 4:20:11 AM

Latest Report: Apr 2, 2015 at 3:00 AM


Visibility: N/A

Pressure: 30.01 "Hg

Humidity: 60%

Dew point: 28 °F

Location of EisenstadtLocation

Historic Weather in Eisenstadt — Graph

°F

Eisenstadt temperature yesterday

Maximum temperature yesterday: 49 °F (at 12:00 AM)
Minimum temperature yesterday: 40 °F (at 12:00 PM)
Average temperature yesterday: 45 °F

Past Weeks' High & Low Weather Summary

 TemperatureHumidityPressure
High64 °F (Mar 26, 4:00 PM)94% (Mar 26, 10:00 PM)30.39 "Hg (Mar 26, 10:00 PM)
Low31 °F (Mar 19, 6:00 AM)36% (Mar 18, 4:00 PM)29.44 "Hg (Mar 31, 3:00 PM)
Average46 °F65%29.95 "Hg
* Reported Mar 18 2:00 AM — Apr 2 3:00 AM, Eisenstadt, Weather by CustomWeather, © 2015

Note: Actual official high and low records may vary slightly from our data, if they occured in-between our weather recording intervals... More about our weather records

Advertising

Eisenstadt weather history for previous 24 hours

 ConditionsComfort  
Time TempWeatherWind HumidityBarometerVisibility
3:00 AM
Thu, Apr 2
40 °FQuite cool.6 mph60%30.01 "HgN/A
2:00 AM41 °FPassing clouds.8 mph57%30.02 "Hg9 mi
1:00 AM38 °FChilly.5 mph79%30.03 "HgN/A
12:00 AM40 °FChilly.7 mph74%30.01 "HgN/A
10:00 PM
Wed, Apr 1
42 °FQuite cool.7 mph55%30.00 "HgN/A
9:00 PM43 °FQuite cool.8 mph53%29.98 "HgN/A
8:00 PM42 °FPassing clouds.5 mph57%29.96 "Hg9 mi
7:00 PM44 °FPartly sunny.8 mph52%29.94 "Hg9 mi
6:00 PM46 °FCool.10 mph49%29.92 "HgN/A
5:00 PM46 °FScattered clouds.8 mph48%29.90 "Hg9 mi
4:00 PM46 °FCool.7 mph47%29.89 "HgN/A
3:00 PM46 °FCool.9 mph44%29.90 "HgN/A
2:00 PM47 °FPartly sunny.9 mph43%29.90 "Hg9 mi
1:00 PM44 °FQuite cool.7 mph59%29.90 "HgN/A
12:00 PM40 °FChilly.7 mph77%29.93 "HgN/A
11:00 AM43 °FQuite cool.7 mph56%29.90 "HgN/A
10:00 AM42 °FQuite cool.7 mph63%29.89 "HgN/A
9:00 AM42 °FQuite cool.12 mph60%29.84 "HgN/A
8:00 AM42 °FQuite cool.8 mph60%29.82 "HgN/A
7:00 AM42 °FPartly sunny.6 mph67%29.80 "Hg9 mi
6:00 AM45 °FOvercast.7 mph54%29.78 "Hg9 mi
4:00 AM47 °FCool.6 mph50%29.73 "HgN/A
Weather by CustomWeather, © 2015

See weather overviewHow to use our weather pages